ATLAS AGENA B DEB, 630

Orbit data source: Space-Track

ATLAS AGENA B DEB, 630 is space debris in LEO originally from a launch on Fri, 19 Jul 1963 UTC launched from the Air Force Western Test Range (AFWTR). Debris objects in space refer to the collection of defunct objects orbiting the Earth. Examples of debris include non-operational satellites, rocket bodies, and fragments generated from explosions, collisions, or faulty payload assembly.

Loading next visibility...
Identifier
630, 1963-030C
Orbit
LEO
Country
Flag of USUS
Related business
Manufacturer
Unknown
Mission
Spacecraft
Bus & Motor
Unknown
Mass
~10 kg wet, ~10 kg dry
Launch date (UTC)
1963-07-19 (62 years ago)
Launch vehicle
Unknown
Launch site
Air Force Western Test Range (AFWTR)
Object type
Payload
Rocket body
Debris
Shape & HBR
Box, 0.8 m
Radar Cross Section
1.575 m², Medium (>0.1 m² and < 1m²)

Expand to show TLE details & history
Last TLE update: 3 days ago

TLE from 3 days ago
0 ATLAS AGENA B DEB
1 00630U 63030C   25258.27722134  .00000021  00000-0  89005-2 0  9998
2 00630  88.4352 218.0446 0051117 161.5297 198.7423  8.59860882951207
Epoch: 2025-09-15T06:39Z
TLE epoch observation values (Epoch: 2025-09-15T06:39:11.923Z)
Latitude
-0.00005°
Longitude
123.76073°
Altitude
3,737.084 km
Speed
6.263 km/s
True Right ascension
14h 32m 10s
True Declination
0° 00' 00"
Sunlit
Object was in daylight at epoch
Visualization orbit readout
Latitude
Unknown
Longitude
Unknown
Altitude
Unknown
Speed
Unknown
Apparent Right ascension
Unknown
Apparent Declination
Unknown
Sunlit
N/A
Visualization observer readout
Local Sidereal Time
23:06:22
Azimuth
Unknown
Elevation
Unknown
Doppler factor
Unknown
Orbital elements
Apogee altitude
3,735.409 km
Perigee altitude
3,632.54 km
Semi-major axis
10,062.111 km
Eccentricity
0.00511
Inclination
88.4352°
RAAN
218.0446°
Arg. of periapsis
161.5297°
True anomaly
198.55522°
Mean anomaly
198.7423°
Eccentric anomaly
198.64865°
Mean motion
2.15035 °/min
Orbital period
167.41 mins
BSTAR
0.0089005
Loading maneuver chart data...
Computing Atmospheric mass density...
Loading historical data...
Loading historical data...
Loading historical data...
Loading historical data...
Loading historical data...
Loading historical data...
Loading historical data...

Documentation

Showing up to 5 results
|